STARLINK-11632, 63108

Orbit data source: Space-Track

STARLINK-11632, 63108 is a payload satellite owned by SpaceX/Seattle (US) in LEO that was launched on Thu, 27 Feb 2025 UTC via an FALCON 9 launch vehicle from the Air Force Eastern Test Range (AFETR). Payload-class satellites include a variety of spacecraft equipped with specific instruments for various scientific and technological missions. These include communications satellites like Starlink; space stations such as the ISS; scientific satellites like the Hubble; Earth observation satellites from companies like Planet Labs, Umbra, and HawkEye 360; GPS; miniature CubeSats for education and research; and military/defense satellites.

Loading next visibility...
Identifier
63108, 2025-039E
Orbit
LEO
Country
Flag of USUS
Related business
Manufacturer
SpaceX/Seattle
Mission
Operational Commercial Communications
Bus & Motor
STARLINK V2MD, Unknown motor
Mass
960 kg wet, ~910 kg dry
Launch date (UTC)
2025-02-27 (11 months ago)
Launch vehicle
FALCON 9
Launch site
Air Force Eastern Test Range (AFETR)
Object type
Payload
Rocket body
Debris
Shape & HBR
Box + 2 Pan, 18.1 m
Radar Cross Section
36.964 m², Large (>1 m²)

Expand to show TLE details & history
Last TLE update: 9 hours ago

TLE from 9 hours ago
0 STARLINK-11632
1 63108U 25039E   26035.11620415  .00318119  00000-0  23750-2 0  9995
2 63108  43.0014  79.3581 0002985 254.5406 105.5132 15.70978900 54333
Epoch: 2026-02-04T02:47Z
TLE epoch observation values (Epoch: 2026-02-04T02:47:20.038Z)
Latitude
-0.00003°
Longitude
-96.76283°
Altitude
356.408 km
Speed
7.697 km/s
True Right ascension
05h 17m 25s
True Declination
0° 00' 00"
Sunlit
Object was in full shadow at epoch
Visualization orbit readout
Latitude
Unknown
Longitude
Unknown
Altitude
Unknown
Speed
Unknown
Apparent Right ascension
Unknown
Apparent Declination
Unknown
Sunlit
N/A
Visualization observer readout
Local Sidereal Time
14:02:11
Azimuth
Unknown
Elevation
Unknown
Doppler factor
Unknown
Orbital elements
Apogee altitude
360.09 km
Perigee altitude
356.069 km
Semi-major axis
6,736.217 km
Eccentricity
0.0003
Inclination
43.0014°
RAAN
79.3581°
Arg. of periapsis
254.5406°
True anomaly
105.54616°
Mean anomaly
105.5132°
Eccentric anomaly
105.52968°
Mean motion
3.92572 °/min
Orbital period
91.7 mins
BSTAR
0.002375
Loading maneuver chart data...
Computing Atmospheric mass density...
Loading historical data...
Loading historical data...
Loading historical data...
Loading historical data...
Loading historical data...
Loading historical data...
Loading historical data...

Documentation

Showing up to 5 results
|